[[{"header":{"parameterUnit":"m.s-1","parameterCategory":2,"la1":30.2991,"la2":30.254,"lo1":-89.0895,"lo2":-89.0444,"dy":0.0017,"dx":0.0017,"nx":28,"ny":28,"refTime":"2025-04-26T09:00:00:Z","depth":"0","parameterNumber":2,"parameterNumberName":"U-component_of_CURRENTS"},"data":[0,0,0,0,0,0,0,0,0,0,0,0,0,0,0,0,0,0,0,0,0,0,0,0,0,0,0,0,0,0,0,0,0,0,0,0,0,0,0,0,0,0,0,0,0,0,0,0,0,0,0,0,0,0,0,0,0,0,0.3216,0.3216,0,0.3247,0.3248,0.3248,0.3271,0.3271,0.3271,0.3271,0.3209,0.3207,0.3205,0,0,0,0,0,0,0,0,0,0,0,0,0,0.3194,0.3194,0.3216,0.3216,0.3217,0.3247,0.3248,0.3248,0.327,0.3271,0.3271,0.3271,0.321,0.3208,0.3205,0,0,0,0,0,0,0,0,0,0,0,0,0,0.3211,0.3194,0.3216,0.3232,0.3234,0.3247,0.3248,0.3248,0.327,0.3271,0.3271,0.3272,0.3211,0.3208,0.3205,0.318,0,0,0.3196,0.3195,0,0,0,0,0,0,0,0,0.321,0.3212,0.3229,0.3231,0.3233,0.3256,0.3217,0.3221,0.327,0.3256,0.3271,0.3272,0.3216,0.3213,0.3218,0.3177,0.3174,0.3196,0.3194,0.3193,0.3192,0,0,0,0,0,0,0,0.3209,0.3211,0.3228,0.323,0.3232,0.3244,0.3247,0.3218,0.3231,0.3257,0.3259,0.3264,0.3217,0.3221,0.3217,0.3173,0.3196,0.3194,0.3192,0.3191,0.3075,0.3073,0,0,0,0,0,0,0.3205,0.3209,0.3227,0.3229,0.3223,0.3245,0.3247,0.3248,0.3234,0.3233,0.3263,0.3265,0.3226,0.322,0.3215,0.3138,0.3193,0.319,0.3189,0.3076,0.3074,0.3073,0,0,0,0,0,0,0.3204,0.3206,0.3225,0.3221,0.3224,0.3244,0.3245,0.3248,0.3254,0.324,0.3237,0.3266,0.3226,0.3219,0.3184,0.3138,0.3189,0.3187,0.3078,0.3075,0.3074,0.3014,0,0,0,0,0,0,0.3204,0.3206,0.3206,0.322,0.3224,0.3235,0.3244,0.3249,0.3257,0.3259,0.3241,0.3236,0.3226,0.3188,0.3181,0.3135,0.3184,0.3079,0.3077,0.3074,0.3018,0.301,0.3004,0,0,0,0,0,0.3203,0.3197,0.3205,0.3208,0.3223,0.3235,0.3238,0.3253,0.3257,0.326,0.324,0.3236,0.3166,0.3185,0.3177,0.3129,0.3081,0.3077,0.3074,0.3021,0.3012,0.3004,0,0,0,0,0,0,0.318,0.32,0.3209,0.3208,0.3223,0.3239,0.324,0.3251,0.3241,0.3237,0.3222,0.3215,0.317,0.316,0.3181,0.3089,0.312,0.3116,0.3083,0.3074,0.3067,0.3081,0.3182,0,0,0,0,0,0.3176,0.3182,0.3201,0.3201,0.3206,0.3223,0.3229,0.3241,0.3236,0.3234,0.322,0.3191,0.315,0.3123,0.3102,0.3048,0.3073,0.3011,0.3004,0.2998,0.3005,0.3019,0.3014,0.3063,0.3063,0.3063,0,0,0.3168,0.3179,0.3182,0.3198,0.3207,0.3184,0.3227,0.3235,0.3204,0.3224,0.3177,0.3174,0.3135,0.308,0.3056,0.3063,0.2995,0.2995,0.2989,0.3,0.3015,0.3011,0.3007,0.3061,0.3061,0.3061,0,0,0.314,0.3161,0.3151,0.3154,0.3169,0.317,0.317,0.3186,0.3184,0.3149,0.3146,0.3124,0.3066,0.3033,0.3002,0.2942,0.2968,0.2928,0.2886,0.2899,0.2895,0.2893,0.2909,0.2909,0.2911,0.291,0.291,0,0.3131,0.3107,0.3149,0.3127,0.3113,0.3153,0.3117,0.3113,0.3114,0.3111,0.3124,0.3067,0.3036,0.296,0.2934,0.2924,0.2949,0.2918,0.2891,0.2889,0.2888,0.2906,0.2906,0.2907,0.2908,0.2908,0.2908,0,0.3083,0.3059,0.3049,0.3024,0.3022,0.3003,0.3002,0.3004,0.3007,0.3011,0.2983,0.2967,0.2942,0.2911,0.2893,0.2851,0.2879,0.2893,0.2916,0.288,0.29,0.2901,0.2903,0.2904,0.2905,0.2906,0,0,0.3067,0.3024,0.3016,0.2984,0.2964,0.2958,0.2911,0.2893,0.2892,0.2887,0.288,0.2804,0.2853,0.2823,0.2817,0.281,0.2803,0.284,0.2843,0.2864,0.2844,0.2806,0.2805,0.2822,0.2822,0.2822,0.286,0,0.3009,0.2933,0.2931,0.285,0.2806,0.2826,0.2789,0.2788,0.2806,0.282,0.2814,0.281,0.2797,0.2809,0.2793,0.2823,0.2806,0.2792,0.2871,0.2873,0.285,0.2804,0.2691,0.271,0.2861,0.2862,0.2862,0,0.2953,0.2905,0.2815,0.2764,0.2754,0.2722,0.2712,0.2693,0.2721,0.2749,0.2763,0.2796,0.2778,0.2793,0.2801,0.2802,0.281,0.2826,0.2828,0.2819,0.2838,0.2772,0.2707,0.2616,0.2864,0.2864,0.2864,0,0.2907,0.2826,0.2749,0.2725,0.2677,0.2663,0.2654,0.2676,0.2689,0.2733,0.277,0.2775,0.2802,0.2811,0.2836,0.283,0.2873,0.287,0.2836,0.2834,0.2765,0.2756,0.2626,0.2865,0.2865,0.2865,0.2865,0,0.2842,0.2786,0.2728,0.2685,0.2637,0.2629,0.2621,0.2637,0.268,0.2702,0.2745,0.2778,0.2814,0.2847,0.2852,0.2853,0.2882,0.2824,0.2835,0.2738,0.2727,0.267,0.264,0.2867,0.2866,0.2866,0.2866,0,0.2815,0.2766,0.2683,0.262,0.2611,0.2589,0.2603,0.2614,0.2662,0.27,0.2718,0.2794,0.284,0.2867,0.2906,0.2873,0.2785,0.287,0.2756,0.2751,0.2609,0.2582,0.2384,0.2324,0.2827,0.2827,0.2826,0,0.2801,0.2745,0.2649,0.2619,0.2596,0.2574,0.2571,0.2604,0.2627,0.2704,0.2721,0.2793,0.2829,0.2876,0.2851,0.2846,0.2753,0.2726,0.2668,0.2572,0.255,0.2429,0.2385,0.2555,0.2552,0.255,0.2548,0,0.278,0.2739,0.2673,0.2587,0.2562,0.2531,0.2531,0.2545,0.2591,0.2625,0.2683,0.2726,0.2786,0.2738,0.2737,0.2721,0.2565,0.2677,0.2599,0.2335,0.2172,0.213,0.2575,0.2527,0.253,0.2531,0.2532,0.2533,0.2787,0.2724,0.2622,0.2544,0.2513,0.2462,0.2418,0.2441,0.2447,0.246,0.2585,0.2591,0.2614,0.2601,0.2567,0.2419,0.2419,0.2317,0.2298,0.2189,0.2085,0.2484,0.2435,0.2436,0.2438,0.2439,0.244,0,0.2753,0.2668,0.2589,0.2463,0.2391,0.2394,0.2362,0.2304,0.2268,0.2336,0.2369,0.2358,0.2305,0.2297,0.2181,0.2052,0.1951,0.1975,0.1775,0.1763,0.2138,0.2081,0.1924,0.1924,0.1924,0.1924,0.1924,0.1924,0.2731,0.2608,0.2519,0.2354,0.2283,0.2146,0.2103,0.2054,0.2058,0.2009,0.199,0.2031,0.2049,0.1929,0.1779,0.1746,0.1587,0.1468,0.1494,0.1763,0.1793,0.1821,0.1758,0.1536,0.1536,0.1028,0.1024,0.1021]},{"header":{"parameterUnit":"m.s-1","parameterCategory":2,"la1":30.2991,"la2":30.254,"lo1":-89.0895,"lo2":-89.0444,"dy":0.0017,"dx":0.0017,"nx":28,"ny":28,"refTime":"2025-04-26T09:00:00:Z","depth":"0","parameterNumber":3,"parameterNumberName":"V-component_of_CURRENTS"},"data":[0,0,0,0,0,0,0,0,0,0,0,0,0,0,0,0,0,0,0,0,0,0,0,0,0,0,0,0,0,0,0,0,0,0,0,0,0,0,0,0,0,0,0,0,0,0,0,0,0,0,0,0,0,0,0,0,0,0,0.0545,0.0545,0,0.0514,0.0513,0.0513,0.0475,0.0474,0.0474,0.0473,0.0427,0.0426,0.0425,0,0,0,0,0,0,0,0,0,0,0,0,0,0.0524,0.0525,0.0545,0.0545,0.0544,0.0514,0.0513,0.0513,0.0475,0.0474,0.0473,0.0473,0.0427,0.0426,0.0425,0,0,0,0,0,0,0,0,0,0,0,0,0,0.0516,0.0525,0.0545,0.0523,0.0521,0.0514,0.0513,0.0512,0.0475,0.0474,0.0473,0.0473,0.0427,0.0426,0.0425,0.0431,0,0,0.0421,0.0421,0,0,0,0,0,0,0,0,0.0516,0.0517,0.0526,0.0524,0.0522,0.0498,0.0489,0.0485,0.0475,0.0491,0.0473,0.0472,0.0451,0.0447,0.0441,0.0429,0.0427,0.0421,0.042,0.042,0.0419,0,0,0,0,0,0,0,0.0517,0.0517,0.0531,0.0526,0.0523,0.0498,0.0496,0.0488,0.0474,0.0489,0.0487,0.0486,0.0449,0.0443,0.044,0.0427,0.0421,0.042,0.0419,0.0419,0.0401,0.0401,0,0,0,0,0,0,0.0527,0.0518,0.0532,0.053,0.0519,0.0499,0.0497,0.0506,0.0474,0.0469,0.0486,0.0484,0.0445,0.0441,0.0438,0.044,0.042,0.0419,0.0418,0.04,0.0401,0.0401,0,0,0,0,0,0,0.0527,0.0529,0.0533,0.0524,0.0523,0.0501,0.051,0.0505,0.0499,0.0472,0.0466,0.0485,0.0444,0.044,0.0429,0.0438,0.0418,0.0417,0.04,0.04,0.0401,0.0447,0,0,0,0,0,0,0.0527,0.053,0.054,0.0525,0.0524,0.0538,0.0511,0.0505,0.05,0.0497,0.047,0.0464,0.0443,0.0431,0.0428,0.0436,0.0416,0.04,0.04,0.0401,0.0445,0.0449,0.0452,0,0,0,0,0,0.0526,0.0547,0.0541,0.0543,0.0539,0.0539,0.0536,0.0516,0.0501,0.0506,0.0481,0.0465,0.0432,0.0431,0.0427,0.0435,0.04,0.04,0.0401,0.0443,0.0448,0.0452,0,0,0,0,0,0,0.0542,0.0545,0.0538,0.0558,0.0552,0.0533,0.0537,0.0522,0.0506,0.0501,0.047,0.0464,0.0457,0.044,0.044,0.043,0.0412,0.0412,0.0446,0.045,0.0454,0.0464,0.0415,0,0,0,0,0,0.0552,0.057,0.0562,0.0577,0.0578,0.0558,0.0555,0.0541,0.0525,0.0518,0.0498,0.0475,0.0458,0.0449,0.0434,0.0432,0.0412,0.0433,0.0437,0.044,0.0445,0.0421,0.0423,0.0403,0.0403,0.0403,0,0,0.0562,0.0566,0.0575,0.0582,0.0575,0.0582,0.0554,0.0556,0.0557,0.0516,0.0513,0.0489,0.046,0.0454,0.0449,0.044,0.0435,0.0441,0.0444,0.0447,0.0422,0.0424,0.0426,0.0403,0.0403,0.0403,0,0,0.0594,0.0595,0.062,0.0618,0.0616,0.0603,0.0606,0.0591,0.0581,0.0576,0.0543,0.0524,0.0504,0.0482,0.0468,0.0482,0.0455,0.0478,0.0503,0.048,0.0482,0.0483,0.0463,0.0462,0.0479,0.0479,0.0479,0,0.0605,0.0632,0.0626,0.0644,0.0644,0.0616,0.0632,0.0621,0.0603,0.0599,0.0582,0.0543,0.0517,0.0503,0.0503,0.0491,0.0474,0.0491,0.0486,0.0486,0.0487,0.0465,0.0464,0.0481,0.0481,0.048,0.048,0,0.0654,0.0667,0.0681,0.0695,0.0695,0.0703,0.0687,0.0685,0.0666,0.065,0.0635,0.0595,0.0573,0.0559,0.0533,0.0524,0.051,0.0494,0.0477,0.0492,0.0468,0.0466,0.0484,0.0483,0.0483,0.0482,0,0,0.0688,0.0712,0.0714,0.0725,0.0719,0.0726,0.0731,0.0727,0.0736,0.0704,0.0709,0.0663,0.0639,0.0621,0.0585,0.0558,0.0541,0.053,0.0528,0.0514,0.0493,0.0502,0.05,0.0524,0.0524,0.0524,0.0477,0,0.0723,0.0768,0.0767,0.0794,0.081,0.0788,0.0797,0.0789,0.0775,0.0775,0.0724,0.0713,0.0663,0.0654,0.062,0.0566,0.0536,0.0556,0.0478,0.0475,0.0485,0.0498,0.0548,0.0512,0.0474,0.0474,0.0473,0,0.0766,0.0788,0.0829,0.0844,0.085,0.0864,0.0873,0.0879,0.0865,0.0857,0.0831,0.0791,0.0748,0.0704,0.0616,0.0632,0.0567,0.0518,0.0515,0.0506,0.048,0.0491,0.0509,0.0469,0.0469,0.0469,0.047,0,0.0795,0.0826,0.0862,0.0867,0.0883,0.09,0.0908,0.0907,0.0928,0.0912,0.0921,0.0858,0.0841,0.0748,0.0645,0.063,0.055,0.0517,0.0461,0.046,0.048,0.0482,0.0455,0.0451,0.0451,0.0451,0.0452,0,0.0829,0.0852,0.0882,0.0901,0.0942,0.0941,0.0988,0.0986,0.1005,0.1039,0.0969,0.0986,0.0852,0.0787,0.0675,0.0573,0.0573,0.0471,0.0452,0.0498,0.0502,0.0448,0.0404,0.045,0.045,0.045,0.0451,0,0.0853,0.0873,0.0913,0.0946,0.096,0.0993,0.1049,0.1088,0.1091,0.1134,0.1132,0.1091,0.1014,0.0873,0.0736,0.0631,0.0496,0.0475,0.054,0.053,0.0437,0.0394,0.0339,0.0319,0.0405,0.0405,0.0404,0,0.0872,0.0897,0.095,0.0985,0.1004,0.1057,0.1101,0.113,0.1181,0.1206,0.1238,0.1181,0.1167,0.0975,0.0787,0.0601,0.0518,0.0505,0.048,0.0448,0.0385,0.0366,0.0352,0.052,0.0521,0.0522,0.0522,0,0.0898,0.092,0.0955,0.1026,0.1082,0.1147,0.1216,0.1276,0.1314,0.1359,0.1415,0.1408,0.1242,0.1106,0.0849,0.0708,0.0502,0.0515,0.0465,0.0464,0.0457,0.0425,0.0532,0.0529,0.0528,0.0528,0.0527,0.0527,0.0917,0.0944,0.0997,0.1061,0.1133,0.1225,0.1293,0.1385,0.1481,0.1561,0.1559,0.1582,0.1386,0.1066,0.0874,0.0586,0.0554,0.0497,0.0443,0.0425,0.0422,0.0548,0.0533,0.0533,0.0532,0.0532,0.0531,0,0.0929,0.0963,0.1028,0.1109,0.1191,0.1227,0.1356,0.1439,0.1568,0.1667,0.1729,0.1679,0.1443,0.1154,0.0773,0.0568,0.0486,0.0448,0.0436,0.0419,0.0525,0.0548,0.0558,0.0558,0.0558,0.0558,0.0558,0.0558,0.0933,0.0985,0.1012,0.1131,0.1201,0.1313,0.1393,0.1529,0.1639,0.1778,0.183,0.1857,0.1678,0.1035,0.0637,0.0523,0.0396,0.0357,0.0277,0.0355,0.0356,0.0357,0.0371,0.0343,0.0343,0.0232,0.0231,0.023]}],[{"header":{"parameterUnit":"m.s-1","parameterCategory":2,"la1":30.2991,"la2":30.254,"lo1":-89.0895,"lo2":-89.0444,"dy":0.0017,"dx":0.0017,"nx":28,"ny":28,"refTime":"2025-04-26T09:00:00:Z","depth":"2","parameterNumber":2,"parameterNumberName":"U-component_of_CURRENTS"},"data":[0,0,0,0,0,0,0,0,0,0,0,0,0,0,0,0,0,0,0,0,0,0,0,0,0,0,0,0,0,0,0,0,0,0,0,0,0,0,0,0,0,0,0,0,0,0,0,0,0,0,0,0,0,0,0,0,0,0,0.235,0.2351,0,0.2356,0.2356,0.2356,0.2382,0.2383,0.2384,0.2385,0.2421,0.2421,0.2421,0,0,0,0,0,0,0,0,0,0,0,0,0,0.2323,0.2323,0.235,0.2351,0.2351,0.2356,0.2356,0.2356,0.2382,0.2383,0.2384,0.2385,0.2421,0.2421,0.2421,0,0,0,0,0,0,0,0,0,0,0,0,0,0.2328,0.2323,0.235,0.2368,0.237,0.2356,0.2356,0.2355,0.2381,0.2383,0.2384,0.2386,0.2421,0.2421,0.2421,0.2392,0,0,0.2421,0.2421,0,0,0,0,0,0,0,0,0.2328,0.2329,0.2365,0.2367,0.2369,0.2373,0.2359,0.237,0.2381,0.2373,0.2385,0.2386,0.2409,0.241,0.2402,0.2393,0.2395,0.2421,0.2421,0.2421,0.2421,0,0,0,0,0,0,0,0.2328,0.2329,0.2349,0.2365,0.2368,0.2362,0.2365,0.2361,0.238,0.2374,0.2376,0.2383,0.241,0.2402,0.2403,0.2395,0.2421,0.2421,0.2421,0.2421,0.2435,0.2435,0,0,0,0,0,0,0.2335,0.2328,0.2348,0.2349,0.2356,0.2362,0.2364,0.2367,0.238,0.2384,0.2382,0.2384,0.2401,0.2403,0.2405,0.2431,0.2421,0.2421,0.2421,0.2434,0.2435,0.2435,0,0,0,0,0,0,0.2335,0.2337,0.2348,0.2342,0.2344,0.2362,0.2364,0.2366,0.238,0.2386,0.239,0.2396,0.2402,0.2404,0.2421,0.243,0.2421,0.2421,0.2434,0.2435,0.2435,0.2445,0,0,0,0,0,0,0.2334,0.2336,0.2338,0.2343,0.2345,0.2364,0.2363,0.2366,0.2382,0.2386,0.2399,0.2402,0.2403,0.2421,0.2421,0.243,0.2421,0.2434,0.2434,0.2435,0.2445,0.2446,0.2447,0,0,0,0,0,0.2333,0.2329,0.2338,0.2341,0.2348,0.2365,0.2365,0.2379,0.2382,0.2394,0.2399,0.2403,0.2425,0.2421,0.2421,0.2431,0.2433,0.2434,0.2435,0.2444,0.2446,0.2447,0,0,0,0,0,0,0.2323,0.2332,0.2342,0.2344,0.2366,0.2371,0.2377,0.2386,0.2395,0.24,0.2403,0.2407,0.2429,0.2425,0.242,0.2437,0.2431,0.2432,0.2438,0.244,0.2441,0.2437,0.2421,0,0,0,0,0,0.2321,0.2319,0.234,0.2345,0.2355,0.2367,0.2374,0.2389,0.2399,0.2405,0.2411,0.2417,0.2425,0.2431,0.2439,0.2439,0.2443,0.2447,0.2449,0.245,0.2447,0.2462,0.2464,0.2438,0.2438,0.2438,0,0,0.2317,0.2324,0.2323,0.2342,0.2354,0.2365,0.2375,0.2395,0.2404,0.2406,0.2415,0.2426,0.2429,0.2439,0.2448,0.244,0.246,0.2451,0.2452,0.2448,0.2463,0.2466,0.2468,0.2438,0.2438,0.2438,0,0,0.2309,0.2319,0.2317,0.2335,0.2364,0.2371,0.2384,0.2401,0.2413,0.2424,0.243,0.2444,0.2451,0.2454,0.2455,0.2466,0.2473,0.2475,0.2471,0.2486,0.2488,0.249,0.2501,0.2504,0.2468,0.2468,0.2468,0,0.2303,0.2308,0.2323,0.2334,0.2345,0.2376,0.2385,0.2397,0.2418,0.2424,0.2436,0.2449,0.2455,0.2461,0.2468,0.2469,0.248,0.2465,0.2488,0.249,0.2492,0.2502,0.2505,0.2469,0.2469,0.2469,0.2469,0,0.2302,0.2308,0.2312,0.2329,0.2344,0.2361,0.2386,0.2403,0.2418,0.2428,0.2452,0.2461,0.2468,0.2475,0.2473,0.2489,0.2494,0.2494,0.2483,0.2495,0.2505,0.2508,0.247,0.247,0.2469,0.2469,0,0,0.2276,0.2303,0.2305,0.231,0.2345,0.2353,0.2373,0.2395,0.2411,0.2432,0.2448,0.2459,0.2473,0.2475,0.2482,0.249,0.2513,0.2497,0.2498,0.2507,0.2549,0.2495,0.2493,0.2524,0.2524,0.2524,0.2552,0,0.2272,0.2279,0.2298,0.2305,0.2308,0.2342,0.2355,0.238,0.2411,0.2436,0.2453,0.2478,0.2471,0.2488,0.2493,0.252,0.2522,0.2506,0.2537,0.2537,0.2486,0.2494,0.2288,0.229,0.2555,0.2556,0.2556,0,0.2262,0.2266,0.2273,0.2285,0.2292,0.2304,0.2336,0.2357,0.2402,0.243,0.2457,0.2484,0.2505,0.2503,0.2533,0.2528,0.2533,0.2546,0.2547,0.2492,0.2488,0.232,0.2285,0.2561,0.256,0.256,0.256,0,0.2227,0.2242,0.2243,0.2251,0.2278,0.2288,0.2307,0.2352,0.2378,0.2437,0.2468,0.2498,0.2528,0.2541,0.2565,0.2557,0.2601,0.2593,0.2542,0.2539,0.2365,0.2345,0.26,0.26,0.26,0.26,0.26,0,0.2207,0.2205,0.2228,0.2231,0.2235,0.2262,0.2287,0.2321,0.2378,0.2408,0.2462,0.2496,0.2542,0.2574,0.2579,0.2572,0.261,0.254,0.254,0.2363,0.2343,0.2578,0.2575,0.2601,0.2601,0.26,0.26,0,0.2173,0.219,0.2189,0.2214,0.2221,0.2225,0.2273,0.2294,0.2357,0.2404,0.2426,0.2507,0.255,0.2583,0.2621,0.2587,0.2591,0.2574,0.2364,0.2338,0.2514,0.2511,0.2516,0.2514,0.2512,0.2511,0.251,0,0.2155,0.2153,0.2174,0.2174,0.2189,0.2204,0.2218,0.2278,0.2309,0.2402,0.2419,0.2492,0.252,0.2558,0.2521,0.2509,0.2571,0.2306,0.2242,0.2504,0.2504,0.2504,0.2504,0.2019,0.2014,0.201,0.2006,0,0.2125,0.214,0.2148,0.2141,0.215,0.2151,0.2178,0.2199,0.2271,0.2309,0.2364,0.24,0.2439,0.2333,0.2324,0.2291,0.2292,0.2223,0.2547,0.2077,0.2039,0.2039,0.2053,0.197,0.1974,0.1976,0.1978,0.198,0.2108,0.2101,0.2108,0.2095,0.2099,0.2079,0.2055,0.2092,0.211,0.2132,0.224,0.2209,0.2215,0.2094,0.2015,0.1943,0.2107,0.1995,0.2006,0.2022,0.1964,0.1926,0.1825,0.1828,0.183,0.1832,0.1834,0,0.2062,0.2059,0.2052,0.202,0.1985,0.201,0.2006,0.196,0.1937,0.198,0.1999,0.1827,0.1742,0.1744,0.157,0.1556,0.1529,0.1492,0.1431,0.1469,0.1502,0.1416,0.1132,0.113,0.1128,0.1126,0,0,0.204,0.2007,0.199,0.1902,0.1882,0.1792,0.1769,0.1724,0.1713,0.1653,0.1606,0.1708,0.1722,0.1422,0.1365,0.1216,0.1339,0.1169,0.1736,0.1705,0.1735,0.1799,0.1711,0,0,0,0,0]},{"header":{"parameterUnit":"m.s-1","parameterCategory":2,"la1":30.2991,"la2":30.254,"lo1":-89.0895,"lo2":-89.0444,"dy":0.0017,"dx":0.0017,"nx":28,"ny":28,"refTime":"2025-04-26T09:00:00:Z","depth":"2","parameterNumber":3,"parameterNumberName":"V-component_of_CURRENTS"},"data":[0,0,0,0,0,0,0,0,0,0,0,0,0,0,0,0,0,0,0,0,0,0,0,0,0,0,0,0,0,0,0,0,0,0,0,0,0,0,0,0,0,0,0,0,0,0,0,0,0,0,0,0,0,0,0,0,0,0,0.0465,0.0465,0,0.0441,0.0441,0.044,0.0418,0.0417,0.0417,0.0417,0.0379,0.0379,0.0378,0,0,0,0,0,0,0,0,0,0,0,0,0,0.0439,0.0439,0.0465,0.0465,0.0465,0.0441,0.0441,0.044,0.0418,0.0417,0.0417,0.0417,0.038,0.0379,0.0378,0,0,0,0,0,0,0,0,0,0,0,0,0,0.0435,0.044,0.0465,0.0451,0.045,0.0441,0.0441,0.044,0.0418,0.0417,0.0417,0.0417,0.038,0.0379,0.0378,0.0376,0,0,0.0374,0.0373,0,0,0,0,0,0,0,0,0.0435,0.0436,0.0454,0.0452,0.0451,0.0433,0.0418,0.0418,0.0418,0.0429,0.0417,0.0417,0.0397,0.0394,0.0389,0.0374,0.0373,0.0374,0.0373,0.0372,0.0372,0,0,0,0,0,0,0,0.0436,0.0437,0.0455,0.0453,0.0452,0.0428,0.0428,0.0417,0.0414,0.0428,0.0426,0.0425,0.0396,0.039,0.0388,0.0372,0.0374,0.0373,0.0372,0.0371,0.0347,0.0347,0,0,0,0,0,0,0.0444,0.0437,0.0456,0.0454,0.0443,0.0429,0.0429,0.0438,0.0414,0.0411,0.0426,0.0424,0.0393,0.039,0.0387,0.0388,0.0372,0.0371,0.0371,0.0347,0.0347,0.0347,0,0,0,0,0,0,0.0444,0.0446,0.0457,0.0445,0.0445,0.043,0.0441,0.0438,0.0434,0.0413,0.0409,0.0425,0.0392,0.0388,0.0381,0.0386,0.0371,0.037,0.0346,0.0347,0.0347,0.0387,0,0,0,0,0,0,0.0443,0.0447,0.0456,0.0446,0.0446,0.0458,0.0441,0.0438,0.0434,0.0432,0.0411,0.0407,0.0392,0.0383,0.038,0.0384,0.0369,0.0346,0.0346,0.0347,0.0386,0.0389,0.0391,0,0,0,0,0,0.0443,0.0459,0.0457,0.0459,0.046,0.0459,0.0457,0.0444,0.0435,0.0438,0.0422,0.0408,0.0381,0.0382,0.0378,0.0382,0.0346,0.0346,0.0347,0.0385,0.0388,0.0391,0,0,0,0,0,0,0.045,0.0458,0.0456,0.0473,0.0469,0.0456,0.0458,0.0448,0.0437,0.0434,0.0412,0.0407,0.0401,0.0386,0.0388,0.0374,0.036,0.036,0.039,0.0394,0.0396,0.0406,0.0368,0,0,0,0,0,0.0458,0.0474,0.0471,0.0484,0.0486,0.0472,0.047,0.0461,0.045,0.0445,0.043,0.0412,0.0399,0.0392,0.0379,0.0375,0.0355,0.0373,0.0376,0.0378,0.0383,0.0359,0.036,0.0347,0.0347,0.0347,0,0,0.0463,0.047,0.0478,0.0487,0.0483,0.049,0.047,0.0471,0.0474,0.0443,0.0443,0.0423,0.04,0.0394,0.039,0.0383,0.0371,0.0378,0.0381,0.0384,0.0359,0.036,0.0361,0.0347,0.0347,0.0347,0,0,0.0482,0.049,0.051,0.0511,0.0511,0.0504,0.0507,0.0497,0.0491,0.0487,0.0465,0.0449,0.0431,0.0415,0.0404,0.0413,0.0387,0.0406,0.0429,0.0405,0.0406,0.0407,0.0384,0.0382,0.0407,0.0407,0.0407,0,0.0486,0.0514,0.0513,0.0528,0.0533,0.0514,0.0529,0.0522,0.0508,0.0507,0.0493,0.0461,0.044,0.0431,0.0432,0.042,0.0402,0.042,0.041,0.041,0.041,0.0386,0.0384,0.0409,0.0409,0.0409,0.0409,0,0.0521,0.0539,0.0549,0.0567,0.057,0.058,0.0572,0.0572,0.056,0.0548,0.0536,0.0503,0.0486,0.0472,0.0454,0.0445,0.0431,0.0417,0.0404,0.0414,0.0388,0.0385,0.0412,0.0412,0.0411,0.041,0,0,0.0534,0.0569,0.0571,0.0588,0.0592,0.06,0.0608,0.0612,0.0621,0.0594,0.0599,0.0562,0.0541,0.0527,0.0498,0.0473,0.0453,0.0448,0.0446,0.043,0.0401,0.0398,0.0394,0.0438,0.0438,0.0437,0.0384,0,0.0558,0.0604,0.061,0.0642,0.0663,0.0654,0.0665,0.0663,0.0654,0.0654,0.0612,0.0604,0.0563,0.0555,0.0524,0.0476,0.0446,0.0469,0.039,0.0388,0.0387,0.039,0.0404,0.0358,0.038,0.038,0.0379,0,0.0587,0.0616,0.066,0.069,0.0698,0.0713,0.0733,0.0741,0.0732,0.0725,0.0703,0.0669,0.0633,0.0594,0.0513,0.053,0.047,0.0424,0.0421,0.0402,0.0378,0.0351,0.0351,0.0373,0.0374,0.0374,0.0375,0,0.0605,0.0646,0.0687,0.0697,0.0728,0.0746,0.0761,0.0764,0.0784,0.0772,0.0779,0.0724,0.0707,0.0624,0.0529,0.0521,0.0437,0.0413,0.035,0.0348,0.0337,0.0336,0.0349,0.0349,0.035,0.035,0.035,0,0.0629,0.0657,0.0703,0.0726,0.0771,0.0779,0.0824,0.0828,0.0847,0.0876,0.0819,0.0828,0.0713,0.0651,0.0551,0.0448,0.0452,0.0356,0.0336,0.0351,0.0352,0.0347,0.0348,0.0348,0.0348,0.0349,0.0349,0,0.0638,0.0668,0.0718,0.0767,0.0784,0.0817,0.0876,0.0911,0.0917,0.0953,0.0952,0.0912,0.0835,0.0711,0.0583,0.0489,0.0381,0.0339,0.0367,0.0351,0.03,0.0303,0.0262,0.0262,0.0261,0.0261,0.0261,0,0.0648,0.0678,0.0751,0.0788,0.0814,0.0868,0.0911,0.0944,0.0991,0.1008,0.1035,0.0974,0.0946,0.0761,0.0591,0.042,0.0387,0.0308,0.0291,0.0307,0.0291,0.0295,0.0299,0.0287,0.0287,0.0287,0.0287,0,0.0664,0.0694,0.074,0.082,0.0878,0.0941,0.101,0.1061,0.11,0.1133,0.1168,0.1145,0.098,0.0824,0.059,0.0467,0.0336,0.0301,0.031,0.0313,0.0327,0.0313,0.0316,0.0286,0.0286,0.0286,0.0286,0.0286,0.0675,0.0709,0.0779,0.0848,0.0919,0.1004,0.1066,0.1146,0.1225,0.1277,0.1265,0.1229,0.1048,0.0759,0.056,0.0341,0.0353,0.0259,0.026,0.0261,0.028,0.0293,0.0249,0.0249,0.0249,0.0248,0.0248,0,0.0687,0.0731,0.0801,0.089,0.0967,0.1006,0.1122,0.1186,0.1285,0.1334,0.1363,0.117,0.1,0.0779,0.0473,0.0293,0.027,0.0215,0.0232,0.0234,0.0236,0.0253,0.0215,0.0214,0.0213,0.0213,0,0,0.0696,0.0755,0.0789,0.0903,0.0973,0.1078,0.1147,0.1246,0.1312,0.1359,0.134,0.1317,0.106,0.0825,0.0582,0.0403,0.0355,0.0356,0.0404,0.0456,0.046,0.0283,0.0316,0,0,0,0,0]}],[{"header":{"parameterUnit":"m.s-1","parameterCategory":2,"la1":30.2991,"la2":30.254,"lo1":-89.0895,"lo2":-89.0444,"dy":0.0017,"dx":0.0017,"nx":28,"ny":28,"refTime":"2025-04-26T09:00:00:Z","depth":"4","parameterNumber":2,"parameterNumberName":"U-component_of_CURRENTS"},"data":[0,0,0,0,0,0,0,0,0,0,0,0,0,0,0,0,0,0,0,0,0,0,0,0,0,0,0,0,0,0,0,0,0,0,0,0,0,0,0,0,0,0,0,0,0,0,0,0,0,0,0,0,0,0,0,0,0,0,0.1394,0.1394,0,0.1445,0.1446,0.1446,0.1486,0.1486,0.1487,0.1487,0.1572,0.1574,0.1576,0,0,0,0,0,0,0,0,0,0,0,0,0,0.1351,0.1351,0.1394,0.1394,0.1395,0.1445,0.1446,0.1446,0.1486,0.1486,0.1487,0.1487,0.1572,0.1574,0.1576,0,0,0,0,0,0,0,0,0,0,0,0,0,0.1383,0.1352,0.1394,0.1421,0.1424,0.1445,0.1446,0.1447,0.1486,0.1486,0.1487,0.1487,0.1571,0.1574,0.1577,0.1583,0,0,0.1585,0.1587,0,0,0,0,0,0,0,0,0.1381,0.1384,0.1416,0.1419,0.1422,0.146,0.1462,0.1494,0.1486,0.1462,0.1487,0.1488,0.1537,0.1543,0.1551,0.1587,0.1591,0.1586,0.1587,0.1589,0.1589,0,0,0,0,0,0,0,0.1378,0.1382,0.1414,0.1417,0.142,0.1438,0.1443,0.1468,0.1497,0.1464,0.1467,0.1473,0.1539,0.1548,0.1553,0.1592,0.1586,0.1588,0.159,0.1591,0.1733,0.1735,0,0,0,0,0,0,0.137,0.138,0.1412,0.1416,0.1402,0.1438,0.1443,0.1447,0.1496,0.1503,0.1472,0.1475,0.1543,0.155,0.1557,0.165,0.1589,0.1591,0.1593,0.1731,0.1734,0.1736,0,0,0,0,0,0,0.1369,0.1373,0.141,0.1399,0.1405,0.1438,0.1442,0.1448,0.1486,0.1501,0.151,0.1508,0.1544,0.1553,0.1608,0.1651,0.1593,0.1595,0.1729,0.1732,0.1735,0.1784,0,0,0,0,0,0,0.1368,0.1372,0.139,0.1398,0.1405,0.144,0.1441,0.1448,0.1487,0.1491,0.1534,0.1541,0.1545,0.1604,0.1611,0.1653,0.1597,0.1726,0.173,0.1734,0.178,0.1788,0.1796,0,0,0,0,0,0.1366,0.1378,0.1391,0.1396,0.1423,0.1441,0.1447,0.1472,0.1488,0.1508,0.1543,0.1541,0.1633,0.1607,0.1615,0.166,0.1724,0.1729,0.1733,0.1776,0.1787,0.1795,0,0,0,0,0,0,0.1365,0.1383,0.1398,0.1415,0.1437,0.1448,0.1474,0.149,0.1532,0.1549,0.1563,0.1572,0.164,0.1644,0.1615,0.1714,0.1681,0.1687,0.1711,0.1721,0.1728,0.1712,0.16,0,0,0,0,0,0.1374,0.1393,0.1409,0.1428,0.1443,0.1467,0.1485,0.1502,0.153,0.1551,0.1582,0.162,0.166,0.1685,0.1717,0.1767,0.1755,0.1803,0.1811,0.1818,0.1811,0.1828,0.1836,0.1751,0.1751,0.1751,0,0,0.138,0.1393,0.1406,0.1431,0.1454,0.1484,0.148,0.1517,0.1552,0.1554,0.1626,0.1653,0.1681,0.174,0.1771,0.1751,0.184,0.1824,0.1829,0.1818,0.1833,0.1841,0.1848,0.1754,0.1753,0.1753,0,0,0.1392,0.1415,0.1437,0.1461,0.15,0.1515,0.1532,0.1566,0.1598,0.1658,0.1675,0.1721,0.1785,0.1805,0.1825,0.1896,0.1884,0.1922,0.1947,0.1964,0.197,0.1975,0.198,0.1985,0.1923,0.1923,0.1923,0,0.1405,0.1429,0.1447,0.1477,0.1503,0.1534,0.1566,0.1602,0.1653,0.1676,0.1693,0.1785,0.1812,0.1868,0.1898,0.1913,0.1916,0.1905,0.1972,0.1977,0.1981,0.1984,0.1989,0.1926,0.1926,0.1925,0.1925,0,0.1424,0.1463,0.148,0.1529,0.1559,0.1594,0.1636,0.168,0.1724,0.1749,0.1824,0.186,0.1904,0.1934,0.1942,0.1998,0.1988,0.198,0.194,0.1992,0.1993,0.1997,0.193,0.1929,0.1928,0.1927,0,0,0.1407,0.1481,0.1492,0.1523,0.1592,0.1608,0.168,0.173,0.177,0.1833,0.188,0.1954,0.1965,0.1987,0.2007,0.2028,0.2073,0.2025,0.2024,0.2015,0.2108,0.1967,0.1957,0.208,0.2081,0.2082,0.2097,0,0.1425,0.148,0.1518,0.1582,0.1613,0.1666,0.172,0.1772,0.1827,0.1882,0.1924,0.1984,0.1989,0.2023,0.2044,0.2072,0.2087,0.2069,0.207,0.2069,0.1926,0.1958,0.2085,0.21,0.2101,0.2102,0.2102,0,0.143,0.1468,0.1529,0.16,0.162,0.1667,0.1744,0.1797,0.1875,0.1918,0.1973,0.2008,0.2064,0.206,0.2109,0.2102,0.2108,0.2118,0.2118,0.1965,0.1935,0.2037,0.211,0.2109,0.2109,0.2108,0.2108,0,0.1389,0.1473,0.152,0.1549,0.1636,0.1678,0.1729,0.1808,0.1854,0.1946,0.1984,0.2045,0.2088,0.2111,0.2137,0.2134,0.2175,0.2167,0.2039,0.2029,0.213,0.2123,0.2186,0.2186,0.2186,0.2186,0.2186,0,0.1375,0.1417,0.151,0.1536,0.1591,0.1659,0.1727,0.1787,0.1874,0.1916,0.1997,0.2031,0.2107,0.2138,0.2148,0.2098,0.2181,0.2036,0.202,0.2153,0.2149,0.2133,0.2126,0.2186,0.2186,0.2186,0.2186,0,0.1323,0.1388,0.1447,0.1545,0.1577,0.1617,0.1723,0.1761,0.1855,0.1916,0.1948,0.204,0.2072,0.2118,0.2158,0.2093,0.2076,0.2038,0.2177,0.217,0.1917,0.1914,0.1886,0.1881,0.1877,0.1873,0.187,0,0.1295,0.1324,0.1438,0.1472,0.1526,0.1597,0.164,0.1745,0.1785,0.1898,0.191,0.1984,0.2026,0.1961,0.2025,0.2012,0.1991,0.1961,0.1931,0.1897,0.1886,0.1889,0.1891,0.1863,0.1862,0.1861,0.186,0,0.1243,0.1303,0.1354,0.1422,0.148,0.1525,0.1597,0.1612,0.1719,0.1819,0.1821,0.1827,0.1852,0.1869,0.1869,0.1862,0.1968,0.1917,0.1925,0.1897,0.187,0.1863,0.187,0.1846,0.1848,0.1849,0.185,0,0.1208,0.1231,0.1307,0.1354,0.1419,0.1428,0.1477,0.1509,0.1555,0.1677,0.1675,0.1748,0.1836,0.1791,0.1797,0.1771,0.1741,0.1676,0.1697,0.1713,0.1648,0.1588,0.1455,0,0,0,0,0,0.1162,0.1179,0.1223,0.1265,0.1323,0.1356,0.1433,0.1481,0.1583,0.1542,0.1601,0.1616,0.1605,0.165,0.1586,0.1719,0.1752,0.1637,0.169,0.1765,0.1782,0.1719,0,0,0,0,0,0,0.113,0.1177,0.1195,0.1179,0.1188,0.1229,0.1273,0.1342,0.1324,0.1434,0.1442,0.1516,0.154,0.1627,0.1558,0.1568,0.1565,0.1689,0.1684,0.1755,0.177,0.1784,0.1725,0,0,0,0,0]},{"header":{"parameterUnit":"m.s-1","parameterCategory":2,"la1":30.2991,"la2":30.254,"lo1":-89.0895,"lo2":-89.0444,"dy":0.0017,"dx":0.0017,"nx":28,"ny":28,"refTime":"2025-04-26T09:00:00:Z","depth":"4","parameterNumber":3,"parameterNumberName":"V-component_of_CURRENTS"},"data":[0,0,0,0,0,0,0,0,0,0,0,0,0,0,0,0,0,0,0,0,0,0,0,0,0,0,0,0,0,0,0,0,0,0,0,0,0,0,0,0,0,0,0,0,0,0,0,0,0,0,0,0,0,0,0,0,0,0,0.0375,0.0375,0,0.0368,0.0368,0.0368,0.0369,0.0369,0.0369,0.0369,0.0355,0.0354,0.0354,0,0,0,0,0,0,0,0,0,0,0,0,0,0.0348,0.0349,0.0375,0.0375,0.0375,0.0368,0.0368,0.0368,0.0369,0.0369,0.0369,0.0369,0.0355,0.0354,0.0354,0,0,0,0,0,0,0,0,0,0,0,0,0,0.0353,0.0349,0.0375,0.0375,0.0374,0.0368,0.0368,0.0368,0.0369,0.0369,0.0369,0.037,0.0355,0.0354,0.0354,0.0345,0,0,0.0351,0.0351,0,0,0,0,0,0,0,0,0.0352,0.0354,0.0375,0.0375,0.0374,0.037,0.0353,0.036,0.0369,0.0371,0.0369,0.037,0.0359,0.0358,0.0356,0.0345,0.0344,0.0351,0.0351,0.0351,0.035,0,0,0,0,0,0,0,0.0352,0.0354,0.0372,0.0375,0.0374,0.0361,0.0362,0.0354,0.0364,0.0371,0.0371,0.037,0.0359,0.0357,0.0356,0.0344,0.0351,0.0351,0.035,0.035,0.0334,0.0334,0,0,0,0,0,0,0.0355,0.0354,0.0372,0.0372,0.0364,0.0361,0.0362,0.0371,0.0364,0.0363,0.037,0.037,0.0358,0.0357,0.0355,0.0363,0.0351,0.035,0.0349,0.0334,0.0334,0.0334,0,0,0,0,0,0,0.0355,0.0357,0.0373,0.0362,0.0363,0.0362,0.0371,0.0371,0.0375,0.0364,0.0363,0.0376,0.0358,0.0356,0.0357,0.0362,0.035,0.0349,0.0334,0.0334,0.0334,0.0367,0,0,0,0,0,0,0.0354,0.0357,0.0368,0.0363,0.0364,0.0377,0.0371,0.037,0.0374,0.0375,0.0368,0.0366,0.0358,0.0358,0.0356,0.0361,0.0348,0.0334,0.0334,0.0334,0.0366,0.0368,0.037,0,0,0,0,0,0.0353,0.0365,0.0369,0.0371,0.0377,0.0377,0.0377,0.0375,0.0374,0.038,0.0375,0.0367,0.0357,0.0358,0.0355,0.036,0.0334,0.0334,0.0334,0.0365,0.0368,0.037,0,0,0,0,0,0,0.0356,0.0367,0.037,0.0384,0.0384,0.0377,0.0383,0.038,0.038,0.0382,0.037,0.0369,0.0369,0.0359,0.036,0.0354,0.0342,0.0342,0.0367,0.0369,0.0371,0.0379,0.0348,0,0,0,0,0,0.0363,0.0378,0.0379,0.0391,0.0394,0.0389,0.039,0.0389,0.0386,0.0387,0.0381,0.0373,0.0366,0.0364,0.0356,0.0355,0.0338,0.0354,0.0357,0.0358,0.0362,0.034,0.034,0.0334,0.0334,0.0334,0,0,0.0367,0.0374,0.0383,0.0393,0.0394,0.0402,0.0391,0.0396,0.0402,0.0384,0.0394,0.0382,0.0367,0.0367,0.0366,0.036,0.0351,0.0359,0.036,0.0363,0.034,0.0341,0.0341,0.0334,0.0334,0.0334,0,0,0.0378,0.039,0.0406,0.041,0.0416,0.0414,0.0418,0.0416,0.0418,0.0421,0.0409,0.0401,0.0393,0.0383,0.0376,0.0384,0.0363,0.038,0.0398,0.0376,0.0377,0.0377,0.0355,0.0353,0.0381,0.0381,0.0381,0,0.0381,0.0404,0.0408,0.0421,0.0429,0.0422,0.0436,0.0435,0.0433,0.0436,0.043,0.0413,0.04,0.0396,0.0399,0.0389,0.0374,0.0392,0.038,0.038,0.0379,0.0357,0.0354,0.0383,0.0383,0.0382,0.0382,0,0.0402,0.0422,0.043,0.045,0.0457,0.0467,0.0469,0.0475,0.0474,0.0469,0.0467,0.0446,0.0437,0.0428,0.0417,0.0408,0.0397,0.0386,0.0376,0.0382,0.0358,0.0354,0.0385,0.0384,0.0384,0.0384,0,0,0.0403,0.044,0.0444,0.0462,0.0475,0.0484,0.0498,0.0508,0.052,0.0507,0.0516,0.0493,0.048,0.047,0.045,0.0429,0.041,0.041,0.0408,0.0393,0.0362,0.0341,0.0335,0.0398,0.0398,0.0397,0.0346,0,0.0419,0.0456,0.0469,0.0501,0.052,0.0525,0.054,0.0547,0.0548,0.0553,0.0526,0.0525,0.0497,0.0494,0.0468,0.0428,0.0403,0.0425,0.0354,0.0352,0.0336,0.0331,0.0396,0.0343,0.0342,0.0342,0.0341,0,0.0433,0.046,0.05,0.0537,0.0547,0.0566,0.0594,0.0606,0.0608,0.0608,0.0596,0.0574,0.0548,0.0521,0.0452,0.0468,0.042,0.0381,0.0378,0.0346,0.0325,0.0334,0.0335,0.0335,0.0336,0.0336,0.0337,0,0.0436,0.0479,0.0517,0.0529,0.0568,0.0591,0.0612,0.0626,0.0646,0.0646,0.0653,0.0614,0.0601,0.0535,0.0458,0.0456,0.0376,0.0362,0.0294,0.0292,0.0313,0.0313,0.0308,0.0308,0.0308,0.0308,0.0309,0,0.0445,0.0473,0.0527,0.0548,0.0594,0.0613,0.0659,0.067,0.0694,0.0718,0.0685,0.0687,0.0604,0.0549,0.0471,0.0374,0.0384,0.0296,0.0277,0.0327,0.033,0.031,0.0311,0.0306,0.0307,0.0307,0.0308,0,0.0438,0.0472,0.052,0.0577,0.0599,0.0633,0.07,0.073,0.0746,0.0775,0.0778,0.0746,0.0674,0.058,0.0472,0.0396,0.0302,0.0263,0.0327,0.0312,0.0229,0.0232,0.0183,0.0182,0.0181,0.018,0.0179,0,0.0437,0.0464,0.0543,0.0579,0.0611,0.0669,0.0712,0.0753,0.079,0.0808,0.0822,0.077,0.0729,0.0564,0.0464,0.0308,0.0281,0.0226,0.0221,0.0229,0.0216,0.0221,0.0225,0.0177,0.0177,0.0177,0.0177,0,0.0436,0.047,0.0514,0.0591,0.065,0.0711,0.0777,0.0807,0.0849,0.0863,0.0848,0.0766,0.0685,0.0561,0.0441,0.0329,0.0258,0.0215,0.0216,0.0211,0.0222,0.0211,0.0216,0.0173,0.0174,0.0174,0.0174,0,0.0438,0.0466,0.0533,0.0597,0.067,0.0734,0.0771,0.0816,0.0851,0.0871,0.0864,0.0777,0.0736,0.0572,0.0463,0.035,0.0315,0.0263,0.0261,0.0264,0.0299,0.0326,0.0291,0,0,0,0,0,0.0439,0.0472,0.0533,0.0609,0.0682,0.0726,0.0805,0.0839,0.0881,0.0869,0.0868,0.0789,0.0629,0.0573,0.0454,0.0437,0.0292,0.0292,0.0231,0.0154,0.0158,0.0182,0,0,0,0,0,0,0.044,0.0495,0.0525,0.0606,0.0657,0.0739,0.0791,0.0822,0.0822,0.0842,0.0767,0.0736,0.0592,0.069,0.0443,0.0412,0.0351,0.0228,0.0224,0.0152,0.0155,0.0158,0.0185,0,0,0,0,0]}]]